| time (UTC) | temp C | wind direction | speed KPH | gust KPH | rain 1hr cm | rain 24hr cm | rain mn cm | humidity % | barometer mb |
| 20260510164511 | 22 | 326 | 8.0 | 17.7 | 0.00 | 0.05 | 0.00 | 65 | 1014.2 |
| 20260510163124 | 23 | 315 | 8.0 | 16.1 | 0.00 | 0.05 | 0.00 | 63 | 1014.4 |
| 20260510161545 | 23 | 14 | 4.8 | 12.9 | 0.00 | 0.05 | 0.00 | 61 | 1014.4 |
| 20260510160005 | 22 | 78 | 3.2 | 11.3 | 0.00 | 0.05 | 0.00 | 62 | 1014.5 |
| 20260510154555 | 21 | 300 | 4.8 | 9.7 | 0.00 | 0.05 | 0.00 | 69 | 1014.5 |
| 20260510153140 | 20 | 342 | 3.2 | 8.0 | 0.00 | 0.05 | 0.00 | 70 | 1014.6 |
| 20260510151605 | 20 | 196 | 4.8 | 9.7 | 0.00 | 0.05 | 0.00 | 69 | 1014.6 |
| 20260510150006 | 19 | 127 | 3.2 | 8.0 | 0.00 | 0.05 | 0.00 | 75 | 1014.5 |
| 20260510144619 | 18 | 311 | 1.6 | 6.4 | 0.00 | 0.05 | 0.00 | 76 | 1014.3 |
| 20260510143033 | 18 | 323 | 1.6 | 6.4 | 0.00 | 0.05 | 0.00 | 78 | 1014.2 |
| 20260510141623 | 17 | 328 | 3.2 | 4.8 | 0.00 | 0.05 | 0.00 | 80 | 1014.3 |
| 20260510140035 | 17 | 326 | 3.2 | 4.8 | 0.00 | 0.05 | 0.00 | 81 | 1014.4 |
| 20260510134616 | 16 | 342 | 3.2 | 4.8 | 0.00 | 0.05 | 0.00 | 82 | 1014.4 |
| 20260510133019 | 16 | 317 | 1.6 | 6.4 | 0.00 | 0.05 | 0.00 | 83 | 1014.3 |
| 20260510131609 | 16 | 326 | 3.2 | 4.8 | 0.00 | 0.05 | 0.00 | 84 | 1014.2 |
| 20260510130023 | 15 | 323 | 3.2 | 4.8 | 0.00 | 0.05 | 0.00 | 86 | 1014.4 |
| 20260510124614 | 15 | 328 | 1.6 | 3.2 | 0.00 | 0.05 | 0.00 | 89 | 1014.6 |
| 20260510123027 | 15 | 322 | 3.2 | 4.8 | 0.00 | 0.05 | 0.00 | 91 | 1014.4 |
| 20260510120028 | 15 | 59 | 0.0 | 1.6 | 0.00 | 0.05 | 0.00 | 95 | 1014.1 |
| 20260510114622 | 14 | 60 | 0.0 | 4.8 | 0.00 | 0.05 | 0.00 | 94 | 1014.1 |
| 20260510113029 | 13 | 60 | 3.2 | 4.8 | 0.00 | 0.05 | 0.00 | 93 | 1013.7 |
| 20260510111614 | 13 | 59 | 0.0 | 4.8 | 0.00 | 0.05 | 0.00 | 94 | 1013.7 |
| 20260510110035 | 12 | 59 | 0.0 | 4.8 | 0.00 | 0.05 | 0.00 | 93 | 1013.4 |
| 20260510104626 | 12 | 39 | 0.0 | 1.6 | 0.00 | 0.05 | 0.00 | 93 | 1013.3 |
| 20260510103041 | 11 | 37 | 0.0 | 1.6 | 0.00 | 0.05 | 0.00 | 92 | 1012.8 |
| 20260510101507 | 11 | 37 | 0.0 | 1.6 | 0.00 | 0.05 | 0.00 | 92 | 1012.7 |
| 20260510100101 | 11 | 37 | 0.0 | 1.6 | 0.00 | 0.05 | 0.00 | 92 | 1012.7 |
| 20260510094538 | 11 | 37 | 0.0 | 1.6 | 0.00 | 0.05 | 0.00 | 92 | 1012.8 |
| 20260510093121 | 12 | 37 | 0.0 | 3.2 | 0.00 | 0.05 | 0.00 | 92 | 1012.8 |
| 20260510091542 | 12 | 37 | 1.6 | 6.4 | 0.00 | 0.05 | 0.00 | 93 | 1012.7 |
| 20260510090014 | 12 | 37 | 0.0 | 6.4 | 0.00 | 0.05 | 0.00 | 92 | 1012.5 |
| 20260510084608 | 11 | 113 | 3.2 | 8.0 | 0.00 | 0.05 | 0.00 | 93 | 1012.6 |
| 20260510083025 | 11 | 177 | 0.0 | 0.0 | 0.00 | 0.05 | 0.00 | 91 | 1012.3 |
| 20260510081628 | 12 | 177 | 0.0 | 1.6 | 0.00 | 0.05 | 0.00 | 91 | 1012.0 |
| 20260510080036 | 12 | 221 | 0.0 | 3.2 | 0.00 | 0.05 | 0.00 | 92 | 1011.8 |
| 20260510074629 | 11 | 223 | 0.0 | 1.6 | 0.00 | 0.05 | 0.00 | 91 | 1011.5 |
| 20260510073107 | 12 | 223 | 0.0 | 0.0 | 0.00 | 0.05 | 0.00 | 90 | 1011.4 |
| 20260510071528 | 12 | 223 | 0.0 | 0.0 | 0.00 | 0.05 | 0.00 | 90 | 1011.4 |
| 20260510070110 | 12 | 223 | 0.0 | 1.6 | 0.00 | 0.05 | 0.00 | 90 | 1011.3 |
| 20260510064529 | 12 | 223 | 0.0 | 0.0 | 0.00 | 0.05 | 0.00 | 90 | 1011.1 |
| 20260510063117 | 13 | 223 | 0.0 | 1.6 | 0.00 | 0.05 | 0.00 | 89 | 1011.0 |
| 20260510061542 | 13 | 223 | 0.0 | 1.6 | 0.00 | 0.05 | 0.00 | 89 | 1011.1 |
| 20260510060124 | 13 | 223 | 0.0 | 1.6 | 0.00 | 0.05 | 0.00 | 89 | 1011.2 |
| 20260510054539 | 13 | 223 | 0.0 | 3.2 | 0.00 | 0.05 | 0.00 | 88 | 1011.3 |
| 20260510053130 | 14 | 223 | 0.0 | 3.2 | 0.00 | 0.05 | 0.00 | 88 | 1011.3 |
| 20260510051549 | 14 | 223 | 0.0 | 3.2 | 0.00 | 0.05 | 0.00 | 87 | 1011.3 |
| 20260510050131 | 14 | 223 | 1.6 | 4.8 | 0.00 | 0.05 | 0.00 | 87 | 1011.3 |
| 20260510044540 | 15 | 224 | 1.6 | 4.8 | 0.00 | 0.05 | 0.00 | 86 | 1011.4 |
| 20260510043005 | 15 | 220 | 1.6 | 3.2 | 0.00 | 0.05 | 0.00 | 85 | 1011.5 |
| 20260510041556 | 15 | 219 | 3.2 | 6.4 | 0.00 | 0.05 | 0.00 | 85 | 1011.3 |
| 20260510040007 | 15 | 224 | 3.2 | 6.4 | 0.00 | 0.05 | 0.05 | 84 | 1011.3 |
| 20260510034606 | 15 | 218 | 3.2 | 6.4 | 0.00 | 0.05 | 0.05 | 84 | 1011.4 |
| 20260510033036 | 15 | 216 | 3.2 | 4.8 | 0.00 | 0.05 | 0.05 | 83 | 1011.4 |
| 20260510031524 | 16 | 243 | 4.8 | 8.0 | 0.00 | 0.05 | 0.05 | 82 | 1011.3 |
| 20260510030116 | 16 | 220 | 8.0 | 11.3 | 0.00 | 0.05 | 0.05 | 81 | 1011.2 |
| 20260510024542 | 16 | 268 | 4.8 | 8.0 | 0.00 | 0.05 | 0.05 | 80 | 1011.1 |
| 20260510023008 | 16 | 254 | 4.8 | 11.3 | 0.00 | 0.05 | 0.05 | 80 | 1011.1 |
| 20260510020018 | 16 | 248 | 6.4 | 12.9 | 0.00 | 0.05 | 0.05 | 78 | 1011.1 |
| 20260510014621 | 16 | 277 | 6.4 | 11.3 | 0.00 | 0.05 | 0.05 | 78 | 1011.0 |
| 20260510013044 | 16 | 261 | 6.4 | 12.9 | 0.00 | 0.05 | 0.05 | 79 | 1011.1 |
| 20260510011631 | 17 | 272 | 8.0 | 14.5 | 0.00 | 0.05 | 0.05 | 81 | 1010.8 |
| 20260510010056 | 17 | 265 | 6.4 | 11.3 | 0.00 | 0.05 | 0.05 | 80 | 1010.6 |
| 20260510004522 | 17 | 252 | 6.4 | 9.7 | 0.00 | 0.05 | 0.05 | 80 | 1010.5 |
| 20260510003116 | 17 | 262 | 4.8 | 14.5 | 0.00 | 0.05 | 0.05 | 80 | 1010.4 |
| 20260510001534 | 17 | 240 | 9.7 | 16.1 | 0.00 | 0.05 | 0.05 | 79 | 1010.3 |
| 20260510000122 | 17 | 247 | 9.7 | 14.5 | 0.00 | 0.05 | 0.05 | 79 | 1010.4 |
| 20260509234540 | 18 | 323 | 3.2 | 9.7 | 0.00 | 0.05 | 0.05 | 78 | 1010.2 |
| 20260509233135 | 18 | 255 | 3.2 | 9.7 | 0.00 | 0.05 | 0.05 | 76 | 1010.0 |
| 20260509231544 | 18 | 259 | 4.8 | 6.4 | 0.00 | 0.05 | 0.05 | 72 | 1010.0 |
| 20260509230132 | 18 | 302 | 3.2 | 8.0 | 0.00 | 0.05 | 0.05 | 71 | 1009.8 |
| 20260509224548 | 19 | 303 | 1.6 | 8.0 | 0.00 | 0.05 | 0.05 | 70 | 1009.9 |
| 20260509223006 | 19 | 302 | 3.2 | 4.8 | 0.00 | 0.05 | 0.05 | 67 | 1010.0 |
| 20260509221554 | 18 | 321 | 3.2 | 8.0 | 0.00 | 0.05 | 0.05 | 70 | 1009.9 |
| 20260509220008 | 18 | 259 | 3.2 | 6.4 | 0.00 | 0.05 | 0.05 | 72 | 1010.1 |
| 20260509214628 | 18 | 252 | 4.8 | 8.0 | 0.00 | 0.05 | 0.05 | 73 | 1010.1 |
| 20260509213158 | 18 | 257 | 4.8 | 6.4 | 0.00 | 0.05 | 0.05 | 72 | 1010.2 |
| 20260509211622 | 18 | 319 | 3.2 | 6.4 | 0.00 | 0.05 | 0.05 | 71 | 1010.0 |
| 20260509210046 | 18 | 269 | 4.8 | 8.0 | 0.00 | 0.05 | 0.05 | 71 | 1009.9 |
| 20260509204632 | 18 | 277 | 4.8 | 9.7 | 0.00 | 0.05 | 0.05 | 70 | 1009.9 |
| 20260509203058 | 18 | 262 | 6.4 | 9.7 | 0.00 | 0.05 | 0.05 | 69 | 1009.9 |
| 20260509201632 | 18 | 309 | 4.8 | 8.0 | 0.00 | 0.05 | 0.05 | 70 | 1010.1 |
| 20260509200047 | 18 | 324 | 3.2 | 6.4 | 0.03 | 0.05 | 0.05 | 70 | 1010.3 |
| 20260509194502 | 17 | 262 | 1.6 | 6.4 | 0.05 | 0.05 | 0.05 | 72 | 1010.6 |
| 20260509193057 | 17 | 264 | 4.8 | 6.4 | 0.05 | 0.05 | 0.05 | 75 | 1010.6 |
| 20260509191504 | 17 | 333 | 1.6 | 3.2 | 0.05 | 0.05 | 0.05 | 74 | 1010.8 |
| 20260509190054 | 18 | 338 | 0.0 | 3.2 | 0.03 | 0.03 | 0.03 | 72 | 1011.0 |
| 20260509184525 | 18 | 255 | 3.2 | 6.4 | 0.00 | 0.00 | 0.00 | 72 | 1010.8 |
| 20260509183100 | 17 | 283 | 3.2 | 4.8 | 0.00 | 0.00 | 0.00 | 74 | 1011.2 |
| 20260509181517 | 17 | 283 | 1.6 | 3.2 | 0.00 | 0.00 | 0.00 | 73 | 1011.4 |
| 20260509180117 | 17 | 283 | 0.0 | 4.8 | 0.00 | 0.00 | 0.00 | 72 | 1011.5 |
| 20260509174524 | 17 | 283 | 1.6 | 3.2 | 0.00 | 0.00 | 0.00 | 72 | 1011.5 |
| 20260509173119 | 17 | 283 | 0.0 | 3.2 | 0.00 | 0.00 | 0.00 | 69 | 1011.6 |
| 20260509171539 | 17 | 283 | 1.6 | 3.2 | 0.00 | 0.00 | 0.00 | 69 | 1011.7 |
| 20260509170129 | 17 | 283 | 1.6 | 6.4 | 0.00 | 0.00 | 0.00 | 69 | 1011.7 |